• In Hungary
  • List of Countries
  • For 7 days
  • Water Temperature
  • Satellite Maps
  • Weather Map
  • News
  • Weather Widgets
  • user-avatar
    Login

    Hourly Weather Kawagoe

    Today, 17 January, Wednesday

    Time Temperature Precipitation Wind Pressure Humidity
    00:00 +8°C° 0 mm 1 mps 760 mmHg 56%
    01:00 +8°C° 0 mm 1 mps 760 mmHg 57%
    02:00 +7°C° 0 mm 2 mps 760 mmHg 58%
    03:00 +6°C° 0 mm 2 mps 759 mmHg 57%
    04:00 +6°C° 0 mm 2 mps 759 mmHg 57%
    05:00 +8°C° 0 mm 1 mps 759 mmHg 56%
    06:00 +8°C° 0 mm 1 mps 759 mmHg 56%
    07:00 +9°C° 0 mm 1 mps 759 mmHg 56%
    08:00 +8°C° 0 mm 2 mps 759 mmHg 56%
    09:00 +8°C° 0 mm 2 mps 759 mmHg 56%
    10:00 +9°C° 0.1 mm 2 mps 759 mmHg 56%
    11:00 +10°C° 0.1 mm 2 mps 758 mmHg 57%
    12:00 +12°C° 0.1 mm 2 mps 757 mmHg 58%
    13:00 +10°C° 0.6 mm 2 mps 757 mmHg 64%
    14:00 +10°C° 0.6 mm 3 mps 756 mmHg 70%
    15:00 +10°C° 0.6 mm 3 mps 755 mmHg 76%
    16:00 +10°C° 1.7 mm 3 mps 754 mmHg 80%
    17:00 +9°C° 1.7 mm 3 mps 754 mmHg 85%
    18:00 +9°C° 1.7 mm 3 mps 753 mmHg 89%
    19:00 +9°C° 0.4 mm 3 mps 753 mmHg 88%
    20:00 +9°C° 0.4 mm 3 mps 752 mmHg 88%
    21:00 +9°C° 0.4 mm 2 mps 752 mmHg 87%
    22:00 +9°C° 0 mm 3 mps 752 mmHg 86%
    23:00 +9°C° 0 mm 3 mps 752 mmHg 85%

    Tomorrow, 18 January, Thursday

    Time Temperature Precipitation Wind Pressure Humidity
    00:00 +9°C° 0 mm 3 mps 752 mmHg 84%
    01:00 +8°C° 0 mm 3 mps 753 mmHg 83%
    02:00 +8°C° 0 mm 3 mps 754 mmHg 82%
    03:00 +8°C° 0 mm 3 mps 755 mmHg 81%
    04:00 +8°C° 0 mm 2 mps 755 mmHg 79%
    05:00 +8°C° 0 mm 2 mps 756 mmHg 77%
    06:00 +7°C° 0 mm 2 mps 757 mmHg 75%
    07:00 +8°C° 0 mm 2 mps 757 mmHg 72%
    08:00 +10°C° 0 mm 1 mps 757 mmHg 69%
    09:00 +11°C° 0 mm 1 mps 757 mmHg 65%
    10:00 +12°C° 0 mm 1 mps 757 mmHg 60%
    11:00 +13°C° 0 mm 1 mps 757 mmHg 55%
    12:00 +14°C° 0 mm 1 mps 757 mmHg 50%
    13:00 +14°C° 0 mm 2 mps 757 mmHg 49%
    14:00 +14°C° 0 mm 2 mps 757 mmHg 48%
    15:00 +15°C° 0 mm 2 mps 757 mmHg 47%
    16:00 +13°C° 0 mm 2 mps 758 mmHg 52%
    17:00 +12°C° 0 mm 1 mps 758 mmHg 57%
    18:00 +11°C° 0 mm 1 mps 759 mmHg 62%
    19:00 +10°C° 0 mm 1 mps 759 mmHg 62%
    20:00 +9°C° 0 mm 2 mps 759 mmHg 62%
    21:00 +8°C° 0 mm 2 mps 760 mmHg 63%
    22:00 +8°C° 0 mm 2 mps 760 mmHg 62%
    23:00 +8°C° 0 mm 2 mps 760 mmHg 62%

    Day after tomorrow, 19 January, Friday

    Time Temperature Precipitation Wind Pressure Humidity
    00:00 +7°C° 0 mm 3 mps 760 mmHg 62%
    01:00 +7°C° 0 mm 3 mps 761 mmHg 61%
    02:00 +5°C° 0 mm 3 mps 761 mmHg 61%
    03:00 +5°C° 0 mm 3 mps 761 mmHg 61%
    04:00 +6°C° 0 mm 2 mps 761 mmHg 61%
    05:00 +6°C° 0 mm 2 mps 761 mmHg 61%
    06:00 +5°C° 0 mm 2 mps 761 mmHg 60%
    07:00 +6°C° 0 mm 2 mps 762 mmHg 58%
    08:00 +7°C° 0 mm 2 mps 762 mmHg 55%
    09:00 +8°C° 0 mm 1 mps 762 mmHg 52%
    10:00 +9°C° 0 mm 1 mps 762 mmHg 48%
    11:00 +10°C° 0 mm 1 mps 762 mmHg 44%
    12:00 +11°C° 0 mm 1 mps 761 mmHg 41%
    13:00 +11°C° 0 mm 1 mps 761 mmHg 41%
    14:00 +10°C° 0 mm 2 mps 761 mmHg 41%
    15:00 +10°C° 0 mm 2 mps 760 mmHg 41%
    16:00 +10°C° 0 mm 2 mps 761 mmHg 44%
    17:00 +9°C° 0 mm 2 mps 762 mmHg 48%
    18:00 +8°C° 0 mm 2 mps 762 mmHg 51%
    19:00 +8°C° 0 mm 2 mps 762 mmHg 54%
    20:00 +8°C° 0 mm 2 mps 763 mmHg 56%
    21:00 +8°C° 0 mm 2 mps 763 mmHg 58%
    22:00 +7°C° 0 mm 2 mps 763 mmHg 59%
    23:00 +7°C° 0 mm 2 mps 762 mmHg 60%

    20 January, Saturday

    Time Temperature Precipitation Wind Pressure Humidity
    00:00 +7°C° 0 mm 2 mps 762 mmHg 61%
    01:00 +6°C° 0 mm 2 mps 762 mmHg 61%
    02:00 +6°C° 0 mm 2 mps 762 mmHg 62%
    03:00 +6°C° 0 mm 2 mps 762 mmHg 62%
    04:00 +6°C° 0 mm 2 mps 762 mmHg 63%
    05:00 +5°C° 0 mm 2 mps 762 mmHg 64%
    06:00 +5°C° 0 mm 2 mps 762 mmHg 65%
    07:00 +6°C° 0 mm 2 mps 762 mmHg 64%
    08:00 +6°C° 0 mm 2 mps 762 mmHg 63%
    09:00 +6°C° 0 mm 2 mps 762 mmHg 62%
    10:00 +7°C° 0 mm 2 mps 761 mmHg 62%
    11:00 +8°C° 0 mm 2 mps 761 mmHg 61%
    12:00 +8°C° 0 mm 2 mps 760 mmHg 60%
    13:00 +8°C° 0 mm 2 mps 760 mmHg 61%
    14:00 +9°C° 0 mm 2 mps 759 mmHg 62%
    15:00 +9°C° 0 mm 2 mps 759 mmHg 63%
    16:00 +8°C° 0 mm 2 mps 759 mmHg 66%
    17:00 +9°C° 0 mm 1 mps 760 mmHg 70%
    18:00 +8°C° 0 mm 1 mps 760 mmHg 73%
    19:00 +8°C° 0 mm 1 mps 760 mmHg 74%
    20:00 +8°C° 0 mm 1 mps 761 mmHg 75%
    21:00 +7°C° 0 mm 1 mps 761 mmHg 76%
    22:00 +7°C° 0 mm 1 mps 760 mmHg 76%
    23:00 +7°C° 0 mm 1 mps 760 mmHg 76%

    21 January, Sunday

    Time Temperature Precipitation Wind Pressure Humidity
    00:00 +5°C° 0 mm 2 mps 760 mmHg 76%
    01:00 +5°C° 0 mm 2 mps 760 mmHg 74%
    02:00 +6°C° 0 mm 1 mps 760 mmHg 72%
    03:00 +6°C° 0 mm 1 mps 759 mmHg 70%
    04:00 +6°C° 0 mm 1 mps 760 mmHg 68%
    05:00 +5°C° 0 mm 1 mps 760 mmHg 67%
    06:00 +5°C° 0 mm 1 mps 760 mmHg 65%
    07:00 +6°C° 0 mm 1 mps 760 mmHg 60%
    08:00 +7°C° 0 mm 1 mps 760 mmHg 55%
    09:00 +8°C° 0 mm 1 mps 761 mmHg 50%
    10:00 +9°C° 0 mm 1 mps 760 mmHg 45%
    11:00 +9°C° 0 mm 2 mps 760 mmHg 40%
    12:00 +10°C° 0 mm 2 mps 760 mmHg 35%
    13:00 +12°C° 0 mm 2 mps 760 mmHg 34%
    14:00 +12°C° 0 mm 2 mps 760 mmHg 33%
    15:00 +11°C° 0 mm 3 mps 760 mmHg 32%
    16:00 +10°C° 0 mm 2 mps 760 mmHg 35%
    17:00 +9°C° 0 mm 2 mps 761 mmHg 39%
    18:00 +8°C° 0 mm 2 mps 762 mmHg 42%
    19:00 +7°C° 0 mm 2 mps 762 mmHg 45%
    20:00 +7°C° 0 mm 2 mps 763 mmHg 47%
    21:00 +6°C° 0 mm 2 mps 763 mmHg 49%
    22:00 +6°C° 0 mm 2 mps 763 mmHg 50%
    23:00 +5°C° 0 mm 2 mps 764 mmHg 51%

    22 January, Monday

    Time Temperature Precipitation Wind Pressure Humidity
    00:00 +5°C° 0 mm 2 mps 764 mmHg 51%
    01:00 +4°C° 0 mm 2 mps 764 mmHg 51%
    02:00 +4°C° 0 mm 2 mps 764 mmHg 51%
    03:00 +4°C° 0 mm 2 mps 764 mmHg 51%
    04:00 +4°C° 0 mm 2 mps 765 mmHg 51%
    05:00 +3°C° 0 mm 2 mps 765 mmHg 50%
    06:00 +4°C° 0 mm 1 mps 765 mmHg 50%
    07:00 +4°C° 0 mm 2 mps 765 mmHg 49%
    08:00 +4°C° 0 mm 2 mps 765 mmHg 48%
    09:00 +4°C° 0 mm 2 mps 765 mmHg 47%
    10:00 +4°C° 0.3 mm 2 mps 764 mmHg 52%
    11:00 +4°C° 0.3 mm 2 mps 763 mmHg 56%
    12:00 +3°C° 0.3 mm 3 mps 763 mmHg 61%
    13:00 +3°C° 1 mm 3 mps 762 mmHg 69%
    14:00 +2°C° 1 mm 3 mps 762 mmHg 77%
    15:00 +2°C° 1 mm 3 mps 761 mmHg 85%
    16:00 +1°C° 1.7 mm 3 mps 761 mmHg 88%
    17:00 +1°C° 1.7 mm 3 mps 761 mmHg 91%
    18:00 +1°C° 1.7 mm 3 mps 760 mmHg 95%
    19:00 0°C° 1.8 mm 4 mps 760 mmHg 94%
    20:00 0°C° 1.8 mm 4 mps 759 mmHg 94%
    21:00 0°C° 1.8 mm 4 mps 759 mmHg 94%
    22:00 0°C° 2.1 mm 5 mps 757 mmHg 93%
    23:00 0°C° 2.1 mm 5 mps 756 mmHg 93%
    Show more